Showing default

HULIANWANG DIGUI-04, 62326

Orbit data source: Space-Track

HULIANWANG DIGUI-04, 62326 is a payload satellite owned by Zhongguo Xingwang (CN) in LEO that was launched on Mon, 16 Dec 2024 UTC via a CHANG ZHENG 5B/YZ-2 launch vehicle from the Wenchang Satellite Launch Center (WSC). Payload-class satellites include a variety of spacecraft equipped with specific instruments for various scientific and technological missions. These include communications satellites like Starlink; space stations such as the ISS; scientific satellites like the Hubble; Earth observation satellites from companies like Planet Labs, Umbra, and HawkEye 360; GPS; miniature CubeSats for education and research; and military/defense satellites.

Loading next visibility...
Identifier
62326, 2024-240D
Orbit
LEO
Country
Flag of CNCN / PRC
Related business
Manufacturer
CAST?
Mission
Operational Civil Communications
Bus & Motor
GUOWANG C, Unknown motor
Mass
~800 kg wet, ~800 kg dry
Launch date (UTC)
2024-12-16 (1 year ago)
Launch vehicle
CHANG ZHENG 5B/YZ-2
Launch site
Wenchang Satellite Launch Center (WSC)
Object type
Payload
Rocket body
Debris
Shape & HBR
Box + 2 Pan, 5.0 m
Radar Cross Section
5.935 m², Large (>1 m²)

Expand to show TLE details & history
Last TLE update: 15 hours ago

TLE from 15 hours ago
0 HULIANWANG DIGUI-04
1 62326U 24240D   25341.24219462  .00000079  00000-0  15077-3 0  9995
2 62326  86.4984  47.9463 0001664  92.4308 267.7016 13.24414100 47231
Epoch: 2025-12-07T05:48Z
TLE epoch observation values (Epoch: 2025-12-07T05:48:45.615Z)
Latitude
-0.00006°
Longitude
-115.50216°
Altitude
1,170.852 km
Speed
7.268 km/s
True Right ascension
03h 11m 47s
True Declination
0° 00' 00"
Sunlit
Object was in full shadow at epoch
Visualization orbit readout
Latitude
Unknown
Longitude
Unknown
Altitude
Unknown
Speed
Unknown
Apparent Right ascension
Unknown
Apparent Declination
Unknown
Sunlit
N/A
Visualization observer readout
Local Sidereal Time
18:33:54
Azimuth
Unknown
Elevation
Unknown
Doppler factor
Unknown
Orbital elements
Apogee altitude
1,166.282 km
Perigee altitude
1,163.771 km
Semi-major axis
7,543.164 km
Eccentricity
0.00017
Inclination
86.4984°
RAAN
47.9463°
Arg. of periapsis
92.4308°
True anomaly
267.68255°
Mean anomaly
267.7016°
Eccentric anomaly
267.69207°
Mean motion
3.31293 °/min
Orbital period
108.66 mins
BSTAR
0.00015077
Loading maneuver chart data...
Computing Atmospheric mass density...
Loading historical data...
Loading historical data...
Loading historical data...
Loading historical data...
Loading historical data...
Loading historical data...
Loading historical data...

Documentation

Showing up to 5 results
|